MINOTAUR 4 DEB, 54256

Orbit data source: Space-Track

MINOTAUR 4 DEB, 54256 is space debris in LEO originally from a launch on Wed, 15 Jul 2020 UTC launched from the Wallops Island (WLPIS). Debris objects in space refer to the collection of defunct objects orbiting the Earth. Examples of debris include non-operational satellites, rocket bodies, and fragments generated from explosions, collisions, or faulty payload assembly.

Loading next visibility...
Identifier
54256, 2020-046AK
Orbit
LEO
Country
Flag of USUS
Related business
Manufacturer
NGIS FSG
Mission
Spacecraft
Bus & Motor
Unknown
Mass
Unknown
Launch date (UTC)
2020-07-15 (5 years ago)
Launch vehicle
Unknown
Launch site
Wallops Island (WLPIS)
Object type
Payload
Rocket body
Debris
Shape & HBR
Unknown shape, 0.1 m
Radar Cross Section
Small (<0.1 m²)

Expand to show TLE details & history
Last TLE update: 2 days ago

TLE from 2 days ago
0 MINOTAUR 4 DEB
1 54256U 20046AK  25302.98123314  .00026014  00000-0  11055-2 0  9994
2 54256  54.2370 197.1746 0014460 302.2774  57.6836 15.22834255211062
Epoch: 2025-10-29T23:32Z
TLE epoch observation values (Epoch: 2025-10-29T23:32:58.543Z)
Latitude
-0.00001°
Longitude
165.38409°
Altitude
493.003 km
Speed
7.622 km/s
True Right ascension
13h 08m 41s
True Declination
0° 00' 00"
Sunlit
Object was in daylight at epoch
Visualization orbit readout
Latitude
Unknown
Longitude
Unknown
Altitude
Unknown
Speed
Unknown
Apparent Right ascension
Unknown
Apparent Declination
Unknown
Sunlit
N/A
Visualization observer readout
Local Sidereal Time
01:48:00
Azimuth
Unknown
Elevation
Unknown
Doppler factor
Unknown
Orbital elements
Apogee altitude
507.322 km
Perigee altitude
487.438 km
Semi-major axis
6,875.517 km
Eccentricity
0.00145
Inclination
54.237°
RAAN
197.1746°
Arg. of periapsis
302.2774°
True anomaly
57.82377°
Mean anomaly
57.6836°
Eccentric anomaly
57.75367°
Mean motion
3.80702 °/min
Orbital period
94.56 mins
BSTAR
0.0011055
Loading maneuver chart data...
Computing Atmospheric mass density...

Documentation

Showing up to 5 results
|